Time,TemperatureF,DewpointF,PressureIn,WindDirection,WindDirectionDegrees,WindSpeedMPH,WindSpeedGustMPH,Humidity,HourlyPrecipIn,Conditions,Clouds,dailyrainin,SolarRadiationWatts/m^2,SoftwareType,DateUTC
2013-05-13 00:07:00,76.2,74.0,29.98,West,270,0.0,1.0,94,0.00,,,0.00,0,weatherlink.com 1.10,2013-05-13 04:07:00,
2013-05-13 00:22:00,76.1,74.0,29.97,West,270,0.0,0.0,94,0.00,,,0.00,0,weatherlink.com 1.10,2013-05-13 04:22:00,
2013-05-13 00:37:00,76.1,74.0,29.96,West,270,0.0,1.0,94,0.00,,,0.00,0,weatherlink.com 1.10,2013-05-13 04:37:00,
2013-05-13 00:52:00,76.0,74.0,29.96,West,270,0.0,2.0,94,0.00,,,0.00,0,weatherlink.com 1.10,2013-05-13 04:52:00,
2013-05-13 01:07:00,76.0,74.0,29.95,West,270,0.0,1.0,94,0.00,,,0.00,0,weatherlink.com 1.10,2013-05-13 05:07:00,
2013-05-13 01:22:00,75.8,74.0,29.95,West,270,0.0,1.0,94,0.00,,,0.00,0,weatherlink.com 1.10,2013-05-13 05:22:00,
2013-05-13 01:37:00,75.6,74.0,29.95,West,270,0.0,1.0,94,0.00,,,0.00,0,weatherlink.com 1.10,2013-05-13 05:37:00,
2013-05-13 01:52:00,75.3,74.0,29.93,West,270,0.0,3.0,94,0.00,,,0.00,0,weatherlink.com 1.10,2013-05-13 05:52:00,
2013-05-13 02:07:00,75.0,73.0,29.93,West,270,0.0,0.0,94,0.00,,,0.00,0,weatherlink.com 1.10,2013-05-13 06:07:00,
2013-05-13 02:22:00,75.1,73.0,29.93,West,270,0.0,0.0,94,0.00,,,0.00,0,weatherlink.com 1.10,2013-05-13 06:22:00,
2013-05-13 02:37:00,75.2,73.0,29.93,West,270,0.0,0.0,94,0.00,,,0.00,0,weatherlink.com 1.10,2013-05-13 06:37:00,
2013-05-13 02:52:00,75.3,74.0,29.93,West,270,0.0,1.0,94,0.00,,,0.00,0,weatherlink.com 1.10,2013-05-13 06:52:00,
2013-05-13 03:07:00,75.1,73.0,29.93,West,270,0.0,0.0,94,0.00,,,0.00,0,weatherlink.com 1.10,2013-05-13 07:07:00,
2013-05-13 03:22:00,75.1,73.0,29.93,West,270,0.0,0.0,94,0.00,,,0.00,0,weatherlink.com 1.10,2013-05-13 07:22:00,
2013-05-13 03:37:00,75.3,74.0,29.93,West,270,0.0,1.0,94,0.00,,,0.00,0,weatherlink.com 1.10,2013-05-13 07:37:00,
2013-05-13 03:52:00,75.2,73.0,29.93,West,270,0.0,0.0,94,0.00,,,0.00,0,weatherlink.com 1.10,2013-05-13 07:52:00,
2013-05-13 04:07:00,75.1,73.0,29.93,West,270,0.0,0.0,94,0.00,,,0.00,0,weatherlink.com 1.10,2013-05-13 08:07:00,
2013-05-13 04:22:00,75.2,74.0,29.94,West,270,0.0,0.0,95,0.00,,,0.00,0,weatherlink.com 1.10,2013-05-13 08:22:00,
2013-05-13 04:37:00,75.4,74.0,29.93,West,270,0.0,0.0,95,0.00,,,0.00,0,weatherlink.com 1.10,2013-05-13 08:37:00,
2013-05-13 04:52:00,75.4,74.0,29.94,West,270,0.0,0.0,95,0.00,,,0.00,0,weatherlink.com 1.10,2013-05-13 08:52:00,
2013-05-13 05:07:00,75.4,74.0,29.95,West,270,0.0,1.0,95,0.00,,,0.00,0,weatherlink.com 1.10,2013-05-13 09:07:00,
2013-05-13 05:22:00,75.1,74.0,29.95,West,270,0.0,1.0,95,0.00,,,0.00,0,weatherlink.com 1.10,2013-05-13 09:22:00,
2013-05-13 05:37:00,75.1,74.0,29.95,West,270,0.0,0.0,95,0.00,,,0.00,0,weatherlink.com 1.10,2013-05-13 09:37:00,
2013-05-13 05:52:00,75.2,74.0,29.96,West,270,0.0,1.0,95,0.00,,,0.00,0,weatherlink.com 1.10,2013-05-13 09:52:00,
2013-05-13 06:07:00,75.3,74.0,29.96,West,270,0.0,1.0,94,0.00,,,0.00,14,weatherlink.com 1.10,2013-05-13 10:07:00,
2013-05-13 06:22:00,75.4,74.0,29.96,West,270,0.0,1.0,94,0.00,,,0.00,51,weatherlink.com 1.10,2013-05-13 10:22:00,
2013-05-13 06:37:00,75.4,74.0,29.97,West,270,0.0,1.0,94,0.00,,,0.00,28,weatherlink.com 1.10,2013-05-13 10:37:00,
2013-05-13 06:52:00,75.6,74.0,29.97,West,270,0.0,1.0,94,0.00,,,0.00,56,weatherlink.com 1.10,2013-05-13 10:52:00,
2013-05-13 07:07:00,75.8,74.0,29.98,West,270,0.0,1.0,94,0.00,,,0.00,70,weatherlink.com 1.10,2013-05-13 11:07:00,
2013-05-13 07:22:00,76.5,75.0,29.98,West,270,0.0,1.0,94,0.00,,,0.00,262,weatherlink.com 1.10,2013-05-13 11:22:00,
2013-05-13 07:37:00,77.6,76.0,29.99,West,270,0.0,1.0,93,0.00,,,0.00,306,weatherlink.com 1.10,2013-05-13 11:37:00,
2013-05-13 07:53:00,78.6,76.0,29.99,West,270,1.0,2.0,92,0.00,,,0.00,381,weatherlink.com 1.10,2013-05-13 11:53:00,
2013-05-13 08:08:00,80.2,77.0,29.99,West,270,2.0,3.0,89,0.00,,,0.00,438,weatherlink.com 1.10,2013-05-13 12:08:00,
2013-05-13 08:23:00,81.3,77.0,29.99,NE,52,3.0,5.0,87,0.00,,,0.00,496,weatherlink.com 1.10,2013-05-13 12:23:00,
2013-05-13 08:38:00,82.0,77.0,29.99,NE,51,5.0,5.0,84,0.00,,,0.00,540,weatherlink.com 1.10,2013-05-13 12:38:00,
2013-05-13 08:53:00,83.3,77.0,30.00,NE,53,1.0,6.0,81,0.00,,,0.00,599,weatherlink.com 1.10,2013-05-13 12:53:00,
2013-05-13 09:08:00,84.2,77.0,30.00,ENE,58,2.0,6.0,80,0.00,,,0.00,628,weatherlink.com 1.10,2013-05-13 13:08:00,
2013-05-13 09:23:00,85.7,78.0,30.00,ENE,60,2.0,7.0,77,0.00,,,0.00,700,weatherlink.com 1.10,2013-05-13 13:23:00,
2013-05-13 09:38:00,86.4,78.0,30.00,ENE,70,4.0,11.0,75,0.00,,,0.00,752,weatherlink.com 1.10,2013-05-13 13:38:00,
2013-05-13 09:53:00,86.8,78.0,30.01,ENE,69,5.0,12.0,75,0.00,,,0.00,819,weatherlink.com 1.10,2013-05-13 13:53:00,
2013-05-13 10:08:00,86.8,78.0,30.01,East,79,9.0,10.0,74,0.00,,,0.00,831,weatherlink.com 1.10,2013-05-13 14:08:00,
2013-05-13 10:23:00,87.4,78.0,30.01,NE,51,4.0,8.0,73,0.00,,,0.00,837,weatherlink.com 1.10,2013-05-13 14:23:00,
2013-05-13 10:38:00,87.7,78.0,30.01,East,81,7.0,13.0,72,0.00,,,0.00,881,weatherlink.com 1.10,2013-05-13 14:38:00,
2013-05-13 10:53:00,88.2,78.0,30.00,ENE,71,3.0,11.0,72,0.00,,,0.00,904,weatherlink.com 1.10,2013-05-13 14:53:00,
2013-05-13 11:08:00,88.0,78.0,30.00,ENE,68,8.0,14.0,72,0.00,,,0.00,937,weatherlink.com 1.10,2013-05-13 15:08:00,
2013-05-13 11:23:00,88.3,79.0,30.00,ENE,61,5.0,13.0,74,0.00,,,0.00,939,weatherlink.com 1.10,2013-05-13 15:23:00,
2013-05-13 11:38:00,87.5,78.0,29.99,NE,44,9.0,14.0,74,0.00,,,0.00,963,weatherlink.com 1.10,2013-05-13 15:38:00,
2013-05-13 11:53:00,87.7,78.0,29.98,ENE,65,11.0,15.0,73,0.00,,,0.00,974,weatherlink.com 1.10,2013-05-13 15:53:00,
2013-05-13 12:08:00,88.2,78.0,29.99,ENE,61,5.0,17.0,72,0.00,,,0.00,956,weatherlink.com 1.10,2013-05-13 16:08:00,
2013-05-13 12:23:00,87.5,78.0,29.98,East,99,13.0,19.0,73,0.00,,,0.00,951,weatherlink.com 1.10,2013-05-13 16:23:00,
2013-05-13 12:38:00,87.0,78.0,29.98,ENE,68,9.0,18.0,74,0.00,,,0.00,953,weatherlink.com 1.10,2013-05-13 16:38:00,
2013-05-13 12:53:00,87.5,78.0,29.98,ENE,73,8.0,17.0,73,0.00,,,0.00,949,weatherlink.com 1.10,2013-05-13 16:53:00,
2013-05-13 13:08:00,87.2,78.0,29.97,ENE,70,8.0,21.0,74,0.00,,,0.00,935,weatherlink.com 1.10,2013-05-13 17:08:00,
2013-05-13 13:23:00,86.9,78.0,29.97,ENE,71,5.0,17.0,74,0.00,,,0.00,925,weatherlink.com 1.10,2013-05-13 17:23:00,
2013-05-13 13:38:00,87.2,78.0,29.97,ENE,64,17.0,18.0,73,0.00,,,0.00,898,weatherlink.com 1.10,2013-05-13 17:38:00,
2013-05-13 13:53:00,87.2,78.0,29.96,NE,51,8.0,17.0,73,0.00,,,0.00,881,weatherlink.com 1.10,2013-05-13 17:53:00,
2013-05-13 14:08:00,87.0,77.0,29.96,NE,43,9.0,17.0,73,0.00,,,0.00,865,weatherlink.com 1.10,2013-05-13 18:08:00,
2013-05-13 14:23:00,87.9,78.0,29.96,East,82,3.0,16.0,72,0.00,,,0.00,378,weatherlink.com 1.10,2013-05-13 18:23:00,
2013-05-13 14:38:00,87.2,78.0,29.96,North,5,6.0,14.0,73,0.00,,,0.00,780,weatherlink.com 1.10,2013-05-13 18:38:00,
2013-05-13 14:54:00,80.7,70.0,29.96,NW,314,4.0,13.0,70,0.00,,,0.00,223,weatherlink.com 1.10,2013-05-13 18:54:00,
2013-05-13 15:09:00,79.5,72.0,29.95,NW,319,5.0,5.0,77,0.00,,,0.00,91,weatherlink.com 1.10,2013-05-13 19:09:00,
2013-05-13 15:24:00,80.5,72.0,29.95,SSW,210,2.0,5.0,76,0.00,,,0.00,62,weatherlink.com 1.10,2013-05-13 19:24:00,
2013-05-13 15:39:00,80.5,72.0,29.95,South,169,0.0,4.0,76,0.00,,,0.00,37,weatherlink.com 1.10,2013-05-13 19:39:00,
2013-05-13 15:54:00,81.3,72.0,29.95,ESE,123,9.0,10.0,73,0.00,,,0.00,69,weatherlink.com 1.10,2013-05-13 19:54:00,
2013-05-13 16:09:00,81.8,76.0,29.93,NE,56,5.0,7.0,81,0.10,,,0.10,341,weatherlink.com 1.10,2013-05-13 20:09:00,
2013-05-13 16:24:00,82.7,79.0,29.93,ENE,76,4.0,10.0,87,0.10,,,0.10,691,weatherlink.com 1.10,2013-05-13 20:24:00,
2013-05-13 16:39:00,83.5,79.0,29.93,NE,47,7.0,13.0,85,0.10,,,0.10,445,weatherlink.com 1.10,2013-05-13 20:39:00,
2013-05-13 16:54:00,83.6,78.0,29.93,ENE,70,11.0,16.0,83,0.10,,,0.10,439,weatherlink.com 1.10,2013-05-13 20:54:00,
2013-05-13 17:09:00,83.4,78.0,29.93,ENE,69,13.0,15.0,84,0.00,,,0.10,355,weatherlink.com 1.10,2013-05-13 21:09:00,
2013-05-13 17:24:00,83.0,77.0,29.94,NE,46,5.0,17.0,83,0.00,,,0.10,260,weatherlink.com 1.10,2013-05-13 21:24:00,
2013-05-13 17:39:00,82.9,77.0,29.94,ENE,76,5.0,14.0,82,0.00,,,0.10,193,weatherlink.com 1.10,2013-05-13 21:39:00,
2013-05-13 17:54:00,82.7,77.0,29.94,ENE,67,7.0,15.0,82,0.00,,,0.10,128,weatherlink.com 1.10,2013-05-13 21:54:00,
2013-05-13 18:09:00,82.3,76.0,29.94,NNE,32,8.0,16.0,82,0.00,,,0.10,54,weatherlink.com 1.10,2013-05-13 22:09:00,
2013-05-13 18:24:00,82.2,76.0,29.95,NE,49,4.0,14.0,82,0.00,,,0.10,35,weatherlink.com 1.10,2013-05-13 22:24:00,
2013-05-13 18:39:00,81.9,76.0,29.95,NE,51,8.0,15.0,82,0.00,,,0.10,12,weatherlink.com 1.10,2013-05-13 22:39:00,
2013-05-13 18:54:00,81.6,76.0,29.96,East,80,8.0,15.0,83,0.00,,,0.10,0,weatherlink.com 1.10,2013-05-13 22:54:00,
2013-05-13 19:09:00,81.5,76.0,29.96,ESE,102,5.0,8.0,84,0.00,,,0.10,0,weatherlink.com 1.10,2013-05-13 23:09:00,
2013-05-13 19:24:00,81.2,75.0,29.96,ESE,104,4.0,8.0,82,0.00,,,0.10,0,weatherlink.com 1.10,2013-05-13 23:24:00,
2013-05-13 19:39:00,81.2,75.0,29.97,East,96,8.0,13.0,81,0.00,,,0.10,0,weatherlink.com 1.10,2013-05-13 23:39:00,
2013-05-13 19:54:00,81.2,75.0,29.98,ESE,103,7.0,12.0,82,0.00,,,0.10,0,weatherlink.com 1.10,2013-05-13 23:54:00,
2013-05-13 20:09:00,81.0,75.0,29.98,East,90,11.0,15.0,82,0.00,,,0.10,0,weatherlink.com 1.10,2013-05-14 00:09:00,
2013-05-13 20:24:00,80.9,76.0,29.98,East,92,5.0,12.0,84,0.00,,,0.10,0,weatherlink.com 1.10,2013-05-14 00:24:00,
2013-05-13 20:39:00,80.7,76.0,29.99,East,83,7.0,13.0,84,0.00,,,0.10,0,weatherlink.com 1.10,2013-05-14 00:39:00,
2013-05-13 20:54:00,80.6,76.0,29.99,East,91,3.0,10.0,85,0.00,,,0.10,0,weatherlink.com 1.10,2013-05-14 00:54:00,
2013-05-13 21:09:00,80.5,76.0,30.00,ENE,73,7.0,15.0,85,0.00,,,0.10,0,weatherlink.com 1.10,2013-05-14 01:09:00,
2013-05-13 21:24:00,80.5,76.0,30.00,East,89,3.0,11.0,85,0.00,,,0.10,0,weatherlink.com 1.10,2013-05-14 01:24:00,
2013-05-13 21:39:00,80.4,76.0,30.00,East,92,6.0,10.0,85,0.00,,,0.10,0,weatherlink.com 1.10,2013-05-14 01:39:00,
2013-05-13 21:54:00,80.3,76.0,30.00,East,80,10.0,11.0,85,0.00,,,0.10,0,weatherlink.com 1.10,2013-05-14 01:54:00,
2013-05-13 22:09:00,80.3,76.0,30.01,East,88,6.0,8.0,85,0.00,,,0.10,0,weatherlink.com 1.10,2013-05-14 02:09:00,
2013-05-13 22:24:00,80.2,75.0,30.00,ENE,78,4.0,8.0,85,0.00,,,0.10,0,weatherlink.com 1.10,2013-05-14 02:24:00,
2013-05-13 22:39:00,80.2,76.0,30.00,ENE,72,5.0,8.0,86,0.00,,,0.10,0,weatherlink.com 1.10,2013-05-14 02:39:00,
2013-05-13 22:54:00,80.1,76.0,30.00,East,90,5.0,10.0,86,0.00,,,0.10,0,weatherlink.com 1.10,2013-05-14 02:54:00,
2013-05-13 23:09:00,80.1,76.0,30.00,East,82,2.0,10.0,86,0.00,,,0.10,0,weatherlink.com 1.10,2013-05-14 03:09:00,
2013-05-13 23:24:00,80.0,76.0,30.00,East,86,3.0,10.0,86,0.00,,,0.10,0,weatherlink.com 1.10,2013-05-14 03:24:00,
2013-05-13 23:39:00,79.9,75.0,30.00,East,81,5.0,12.0,86,0.00,,,0.10,0,weatherlink.com 1.10,2013-05-14 03:39:00,
2013-05-13 23:54:00,80.0,76.0,29.99,East,83,3.0,7.0,86,0.00,,,0.10,0,weatherlink.com 1.10,2013-05-14 03:54:00,